M I D A S
Marine Information and Data Acquisition System
Tripno 1466 of the Zeeleeuw from 2008-04-25 06:40:08 to 2008-04-25 13:13:30
Back to CruiseResearch ActivitiesStationsMapUnderway DataData graphs

EquipmentUnitsComment
TimeDGPSUTC
LatitudeDGPSDM.mWGS84
LongitudeDGPSDM.mWGS84
TemperatureSBE03/SBE38deg celciusITS90
ConductivitySBE21S/mITS90
SalinitySBE21 Practical Salinity Units
ChlorophylAChelsea fluorimeterg/lCalibrated in Aceton
Missing or incorrect values are displayed as -999
Sea surface data collected by the RV Zeeleeuw from 2008-04-25 06:36:28 to 2008-04-25 13:23:19
Time Latitude Longitude Temperature Conductivity Salinity ChlorophylA
2008-04-25 06:37:33 51°13.68 2°55.883 17.5122 0.068964 0.357072 -1.801521
2008-04-25 06:38:33 51°13.693 2°55.788 17.497 0.068964 0.357084 -1.766697
2008-04-25 06:39:32 51°13.695 2°55.73 17.4857 0.068964 0.357107 -1.801521
2008-04-25 06:40:33 51°13.698 2°55.721 17.5125 0.068964 0.357119 -1.801521
2008-04-25 06:41:33 51°13.744 2°55.706 17.609 0.068964 0.357131 -1.801521
2008-04-25 06:42:32 51°13.84 2°55.635 17.4882 0.068964 0.357143 -1.801521
2008-04-25 06:43:33 51°13.944 2°55.56 17.5719 0.068964 0.357172 -1.801521
2008-04-25 06:44:33 51°14.042 2°55.491 17.5141 0.068964 0.357178 -1.801521
2008-04-25 06:45:33 51°14.148 2°55.412 17.5373 0.068964 0.35719 -1.801521
2008-04-25 06:46:32 51°14.255 2°55.293 17.5522 0.068964 0.357219 -1.801521
2008-04-25 06:47:33 51°14.324 2°55.157 17.4703 0.068964 0.357225 -1.801521
2008-04-25 06:48:32 51°14.388 2°55.023 17.5234 0.068964 0.357254 -1.801521
2008-04-25 06:49:31 51°14.492 2°54.863 17.4269 0.068964 0.357266 -1.801521
2008-04-25 06:50:30 51°14.645 2°54.72 17.3753 0.068964 0.357283 -1.801521
2008-04-25 06:51:30 51°14.82 2°54.561 17.2309 0.068964 0.357313 -1.766697
2008-04-25 06:52:30 51°14.99 2°54.376 17.2504 0.068964 0.35733 -1.801521
2008-04-25 06:53:30 51°15.162 2°54.209 17.1053 0.068964 0.357342 -1.801521
2008-04-25 06:54:30 51°15.352 2°54.129 17.141 0.068964 0.357377 -1.801521
2008-04-25 06:55:30 51°15.536 2°54.011 17.1988 0.068964 0.357395 -1.766697
2008-04-25 06:56:30 51°15.71 2°53.856 17.1297 0.068964 0.357413 -1.801521
2008-04-25 06:57:29 51°15.882 2°53.7 17.1295 0.068964 0.357424 -1.801521
2008-04-25 06:58:30 51°16.062 2°53.537 17.0992 0.068964 0.357448 -1.801521
2008-04-25 06:59:30 51°16.241 2°53.374 16.987 0.068964 0.35746 -1.801521
2008-04-25 07:00:29 51°16.414 2°53.206 17.0024 0.068964 0.357495 -1.801521
2008-04-25 07:01:30 51°16.606 2°53.07 17.0311 0.068964 0.357495 -1.801521
2008-04-25 07:02:30 51°16.795 2°52.935 17.0472 0.068964 0.357501 -1.801521
2008-04-25 07:03:30 51°16.981 2°52.802 17.0727 0.068964 0.357518 -1.766697
2008-04-25 07:04:30 51°17.172 2°52.686 17.0687 0.068964 0.35753 -1.801521
2008-04-25 07:05:30 51°17.374 2°52.634 17.0842 0.068964 0.357548 -1.801521
2008-04-25 07:06:30 51°17.573 2°52.572 17.1445 0.068964 0.357554 -1.801521
2008-04-25 07:07:30 51°17.774 2°52.533 17.1546 0.068964 0.357595 -1.766697
2008-04-25 07:08:30 51°17.977 2°52.507 17.1576 0.068964 0.357583 -1.801521
2008-04-25 07:09:30 51°18.177 2°52.519 17.1848 0.068964 0.357606 -1.801521
2008-04-25 07:10:30 51°18.312 2°52.728 17.0593 0.068964 0.357636 -1.801521
2008-04-25 07:11:29 51°18.376 2°53.011 17.0994 0.068964 0.357642 -1.801521
2008-04-25 07:12:30 51°18.453 2°53.297 17.132 0.068964 0.357654 -1.801521
2008-04-25 07:13:30 51°18.537 2°53.572 17.1527 0.068964 0.357659 -1.766697
2008-04-25 07:14:30 51°18.625 2°53.846 17.1323 0.068964 0.357659 -1.801521
2008-04-25 07:15:30 51°18.713 2°54.119 17.1584 0.068964 0.357683 -1.801521
2008-04-25 07:16:30 51°18.804 2°54.393 17.1651 0.068964 0.357677 -1.801521
2008-04-25 07:17:30 51°18.89 2°54.668 17.192 0.068964 0.357689 -1.801521
2008-04-25 07:18:30 51°18.981 2°54.939 17.1917 0.068964 0.357701 -1.801521
2008-04-25 07:19:30 51°19.074 2°55.206 17.2159 0.068964 0.357706 -1.801521
2008-04-25 07:20:30 51°19.163 2°55.477 17.2178 0.068964 0.357712 -1.766697
2008-04-25 07:21:30 51°19.241 2°55.755 17.2501 0.068964 0.357712 -1.766697
2008-04-25 07:22:30 51°19.311 2°56.038 17.2552 0.068964 0.357724 -1.801521
2008-04-25 07:23:30 51°19.378 2°56.321 17.2544 0.068964 0.357742 -1.801521
2008-04-25 07:24:30 51°19.455 2°56.599 17.2752 0.068964 0.357736 -1.801521
2008-04-25 07:25:30 51°19.529 2°56.877 17.2989 0.068964 0.357754 -1.801521
2008-04-25 07:26:30 51°19.598 2°57.158 17.2787 0.068964 0.357754 -1.801521
2008-04-25 07:27:30 51°19.663 2°57.439 17.3162 0.068964 0.357754 -1.801521
2008-04-25 07:28:30 51°19.73 2°57.721 17.3244 0.068964 0.357765 -1.801521
2008-04-25 07:29:30 51°19.799 2°57.999 17.341 0.068964 0.357771 -1.801521
2008-04-25 07:30:30 51°19.863 2°58.278 17.3166 0.068964 0.357777 -1.801521
2008-04-25 07:31:30 51°19.936 2°58.553 17.3654 0.068964 0.357783 -1.801521
2008-04-25 07:32:30 51°20.005 2°58.829 17.3834 0.068964 0.357789 -1.801521
2008-04-25 07:33:30 51°20.075 2°59.103 17.3762 0.068964 0.357789 -1.801521
2008-04-25 07:34:30 51°20.142 2°59.38 17.3988 0.068964 0.357795 -1.801521
2008-04-25 07:35:30 51°20.2 2°59.661 17.4273 0.068964 0.357812 -1.801521
2008-04-25 07:36:30 51°20.258 2°59.943 17.4256 0.068964 0.357807 -1.801521
2008-04-25 07:37:30 51°20.315 3°0.226 17.4362 0.068964 0.357818 -1.801521
2008-04-25 07:38:30 51°20.378 3°0.505 17.3749 0.068964 0.357818 -1.801521
2008-04-25 07:39:30 51°20.438 3°0.787 17.4328 0.068964 0.357824 -1.801521
2008-04-25 07:40:30 51°20.5 3°1.07 17.436 0.068964 0.357836 -1.801521
2008-04-25 07:41:30 51°20.562 3°1.354 17.4547 0.068964 0.357854 -1.801521
2008-04-25 07:42:30 51°20.633 3°1.633 17.4245 0.068964 0.357842 -1.801521
2008-04-25 07:43:30 51°20.703 3°1.912 17.4455 0.068964 0.357854 -1.801521
2008-04-25 07:44:30 51°20.761 3°2.197 17.5168 0.068964 0.357877 -1.801521
2008-04-25 07:45:30 51°20.83 3°2.476 17.4855 0.068964 0.357877 -1.801521
2008-04-25 07:46:30 51°20.892 3°2.754 17.5114 0.068964 0.357889 -1.801521
2008-04-25 07:47:30 51°20.956 3°3.027 17.5124 0.068964 0.357895 -1.801521
2008-04-25 07:48:30 51°21.014 3°3.303 17.5118 0.068964 0.357907 -1.801521
2008-04-25 07:49:30 51°21.069 3°3.585 17.5431 0.068964 0.357918 -1.766697
2008-04-25 07:50:30 51°21.148 3°3.848 17.5049 0.068964 0.357936 -1.801521
2008-04-25 07:51:30 51°21.229 3°4.108 17.5283 0.068964 0.357948 -1.801521
2008-04-25 07:52:30 51°21.294 3°4.379 17.5308 0.068964 0.35796 -1.801521
2008-04-25 07:53:30 51°21.366 3°4.644 17.5664 0.068964 0.357966 -1.801521
2008-04-25 07:54:30 51°21.435 3°4.914 17.5236 0.068964 0.357972 -1.801521
2008-04-25 07:55:30 51°21.496 3°5.189 17.5876 0.068964 0.357989 -1.801521
2008-04-25 07:56:30 51°21.559 3°5.459 17.5531 0.068964 0.358001 -1.801521
2008-04-25 07:57:30 51°21.621 3°5.73 17.5661 0.068964 0.358019 -1.801521
2008-04-25 07:58:30 51°21.688 3°5.995 17.575 0.068964 0.358025 -1.801521
2008-04-25 07:59:30 51°21.751 3°6.262 17.5801 0.068964 0.358036 -1.801521
2008-04-25 08:00:30 51°21.819 3°6.53 17.6064 0.068964 0.358042 -1.801521
2008-04-25 08:01:30 51°21.885 3°6.795 17.6147 0.068964 0.358048 -1.801521
2008-04-25 08:02:30 51°21.907 3°7.071 17.6634 0.068964 0.358066 -1.766697
2008-04-25 08:03:30 51°21.916 3°7.313 17.6417 0.068964 0.358084 -1.801521
2008-04-25 08:04:30 51°21.923 3°7.492 17.6573 0.068964 0.358089 -1.801521
2008-04-25 08:05:30 51°21.928 3°7.689 17.6308 0.068964 0.358095 -1.801521
2008-04-25 08:06:30 51°21.939 3°7.957 17.6519 0.068964 0.358113 -1.801521
2008-04-25 08:07:30 51°21.942 3°8.236 17.6856 0.068964 0.358125 -1.801521
2008-04-25 08:08:30 51°21.945 3°8.517 17.6861 0.068964 0.358143 -1.801521
2008-04-25 08:09:30 51°21.948 3°8.799 17.6607 0.068964 0.358148 -1.801521
2008-04-25 08:10:30 51°21.935 3°8.983 17.6765 0.068964 0.358172 -1.801521
2008-04-25 08:11:30 51°21.868 3°9.002 17.7346 0.068964 0.358202 -1.801521
2008-04-25 08:12:30 51°21.817 3°8.97 17.7226 0.068964 0.358202 -1.801521
2008-04-25 08:13:30 51°21.77 3°8.929 17.7101 0.068964 0.358207 -1.801521
2008-04-25 08:14:30 51°21.714 3°8.849 17.7273 0.068964 0.358225 -1.801521
2008-04-25 08:15:30 51°21.672 3°8.735 17.7379 0.068964 0.358243 -1.801521
2008-04-25 08:16:30 51°21.655 3°8.62 17.7332 0.068964 0.358272 -1.801521
2008-04-25 08:17:30 51°21.643 3°8.507 17.7357 0.068964 0.358284 -1.801521
2008-04-25 08:18:30 51°21.635 3°8.395 17.753 0.068964 0.358314 -1.801521
2008-04-25 08:19:30 51°21.635 3°8.288 17.7392 0.068964 0.358337 -1.801521
2008-04-25 08:20:30 51°21.635 3°8.18 17.7556 0.068964 0.358355 -1.801521
2008-04-25 08:21:30 51°21.635 3°8.073 17.7521 0.068964 0.358379 -1.766697
2008-04-25 08:22:30 51°21.645 3°7.973 17.7625 0.068964 0.358402 -1.766697
2008-04-25 08:23:30 51°21.661 3°7.876 17.7563 0.068964 0.358426 -1.801521
2008-04-25 08:24:30 51°21.677 3°7.779 17.7733 0.068964 0.358438 -1.801521
2008-04-25 08:25:30 51°21.694 3°7.684 17.7657 0.068964 0.358462 -1.801521
2008-04-25 08:26:30 51°21.711 3°7.589 17.7801 0.068964 0.358479 -1.801521
2008-04-25 08:27:30 51°21.728 3°7.494 17.7857 0.068964 0.358503 -1.801521
2008-04-25 08:28:30 51°21.745 3°7.398 17.7776 0.068964 0.358521 -1.766697
2008-04-25 08:29:30 51°21.766 3°7.308 17.793 0.068964 0.358544 -1.801521
2008-04-25 08:30:30 51°21.786 3°7.219 17.8061 0.068964 0.358562 -1.801521
2008-04-25 08:31:30 51°21.806 3°7.128 17.8054 0.068964 0.358586 -1.801521
2008-04-25 08:32:30 51°21.826 3°7.036 17.8046 0.068964 0.358604 -1.766697
2008-04-25 08:33:30 51°21.846 3°6.942 17.8061 0.068964 0.358621 -1.801521
2008-04-25 08:34:30 51°21.866 3°6.846 17.8202 0.068964 0.358645 -1.801521
2008-04-25 08:35:30 51°21.888 3°6.755 17.8198 0.068964 0.358663 -1.801521
2008-04-25 08:36:30 51°21.907 3°6.659 17.8162 0.068964 0.358681 -1.801521
2008-04-25 08:37:30 51°21.929 3°6.563 17.8101 0.068964 0.358704 -1.801521
2008-04-25 08:38:30 51°21.953 3°6.471 17.8197 0.068964 0.358728 -1.801521
2008-04-25 08:39:30 51°21.976 3°6.379 17.851 0.068964 0.358746 -1.801521
2008-04-25 08:40:30 51°22.001 3°6.288 17.8564 0.068964 0.358764 -1.801521
2008-04-25 08:41:30 51°22.027 3°6.202 17.863 0.068964 0.358787 -1.801521
2008-04-25 08:42:30 51°22.055 3°6.12 17.8608 0.068964 0.358811 -1.801521
2008-04-25 08:43:30 51°22.084 3°6.051 17.8662 0.068964 0.358835 -1.801521
2008-04-25 08:44:30 51°22.11 3°6.035 17.8684 0.068964 0.35887 -1.766697
2008-04-25 08:45:30 51°22.118 3°6.037 17.888 0.068964 0.358888 -1.801521
2008-04-25 08:46:30 51°22.122 3°6.032 17.8864 0.068964 0.358918 -1.801521
2008-04-25 08:47:30 51°22.123 3°6.02 17.9031 0.068964 0.358941 -1.766697
2008-04-25 08:48:30 51°22.125 3°6 17.9221 0.068964 0.358965 -1.801521
2008-04-25 08:49:30 51°22.153 3°5.954 17.9557 0.068964 0.359007 -1.801521
2008-04-25 08:50:30 51°22.155 3°5.832 17.8947 0.068964 0.359019 -1.766697
2008-04-25 08:51:30 51°22.12 3°5.66 17.9284 0.068964 0.35903 -1.801521
2008-04-25 08:52:30 51°22.076 3°5.458 17.9452 0.068964 0.359078 -1.801521
2008-04-25 08:53:30 51°22.011 3°5.198 17.9014 0.068964 0.359108 -1.801521
2008-04-25 08:54:30 51°21.926 3°4.878 17.919 0.068964 0.359143 -1.801521
2008-04-25 08:55:30 51°21.833 3°4.542 17.9231 0.068964 0.359197 -1.801521
2008-04-25 08:56:30 51°21.736 3°4.21 17.9386 0.068964 0.359256 -1.801521
2008-04-25 08:57:30 51°21.63 3°3.885 17.9377 0.068964 0.359328 -1.801521
2008-04-25 08:58:30 51°21.521 3°3.564 17.9334 0.068964 0.359393 -1.801521
2008-04-25 08:59:30 51°21.415 3°3.239 17.917 0.068964 0.359447 -1.801521
2008-04-25 09:00:30 51°21.314 3°2.908 17.9448 0.068964 0.359488 -1.801521
2008-04-25 09:01:30 51°21.219 3°2.571 17.9265 0.068861 0.358971 -1.801521
2008-04-25 09:02:30 51°21.123 3°2.236 17.9523 0.068861 0.359001 -1.801521
2008-04-25 09:03:30 51°21.024 3°1.903 17.9436 0.068861 0.359036 -1.801521
2008-04-25 09:04:30 51°20.924 3°1.572 17.9694 0.068861 0.359066 -1.801521
2008-04-25 09:05:30 51°20.825 3°1.242 17.9567 0.068861 0.35909 -1.801521
2008-04-25 09:06:30 51°20.725 3°0.911 17.9652 0.068861 0.35912 -1.766697
2008-04-25 09:07:30 51°20.625 3°0.582 17.9854 0.068861 0.359138 -1.801521
2008-04-25 09:08:30 51°20.525 3°0.254 17.9767 0.068861 0.359167 -1.801521
2008-04-25 09:09:30 51°20.425 2°59.925 17.9802 0.068861 0.359191 -1.801521
2008-04-25 09:10:30 51°20.324 2°59.597 18.0103 0.068861 0.359215 -1.766697
2008-04-25 09:11:30 51°20.223 2°59.268 17.9958 0.068861 0.359239 -1.801521
2008-04-25 09:12:30 51°20.122 2°58.94 18.0132 0.068861 0.359263 -1.801521
2008-04-25 09:13:30 51°20.02 2°58.612 18.0175 0.068861 0.359287 -1.766697
2008-04-25 09:14:30 51°19.919 2°58.285 18.0078 0.068861 0.359304 -1.801521
2008-04-25 09:15:30 51°19.818 2°57.958 18.015 0.068861 0.359328 -1.766697
2008-04-25 09:16:30 51°19.717 2°57.631 18.0303 0.068861 0.359352 -1.801521
2008-04-25 09:17:30 51°19.615 2°57.303 18.0424 0.068861 0.35937 -1.801521
2008-04-25 09:18:30 51°19.512 2°56.975 18.044 0.068861 0.359388 -1.801521
2008-04-25 09:19:30 51°19.403 2°56.651 18.0356 0.068861 0.359406 -1.801521
2008-04-25 09:20:30 51°19.3 2°56.321 18.059 0.068861 0.359418 -1.801521
2008-04-25 09:21:30 51°19.199 2°55.987 18.0745 0.068861 0.359442 -1.801521
2008-04-25 09:22:30 51°19.096 2°55.654 18.08 0.068861 0.359459 -1.766697
2008-04-25 09:23:30 51°18.992 2°55.32 18.0964 0.068861 0.359471 -1.801521
2008-04-25 09:24:30 51°18.888 2°54.987 18.0854 0.068861 0.359489 -1.801521
2008-04-25 09:25:30 51°18.783 2°54.656 18.0887 0.068861 0.359507 -1.801521
2008-04-25 09:26:30 51°18.678 2°54.324 18.0906 0.068861 0.359525 -1.801521
2008-04-25 09:27:30 51°18.573 2°53.992 18.1103 0.068861 0.359537 -1.766697
2008-04-25 09:28:30 51°18.462 2°53.667 18.1127 0.068861 0.359555 -1.766697
2008-04-25 09:29:30 51°18.346 2°53.35 18.1133 0.068861 0.359573 -1.801521
2008-04-25 09:30:30 51°18.234 2°53.029 18.1281 0.068861 0.359585 -1.801521
2008-04-25 09:31:30 51°18.123 2°52.708 18.1281 0.068861 0.359603 -1.766697
2008-04-25 09:32:30 51°17.979 2°52.433 18.1805 0.068861 0.359621 -1.801521
2008-04-25 09:33:30 51°17.778 2°52.269 18.1512 0.068861 0.359627 -1.801521
2008-04-25 09:34:30 51°17.565 2°52.152 18.1826 0.068861 0.359645 -1.801521
2008-04-25 09:35:30 51°17.351 2°52.049 18.1739 0.068861 0.359656 -1.801521
2008-04-25 09:36:30 51°17.162 2°51.856 18.142 0.068861 0.359686 -1.801521
2008-04-25 09:37:30 51°16.98 2°51.647 18.1924 0.068861 0.359692 -1.801521
2008-04-25 09:38:30 51°16.802 2°51.431 18.2207 0.068861 0.359716 -1.766697
2008-04-25 09:39:30 51°16.626 2°51.208 18.214 0.068861 0.359722 -1.801521
2008-04-25 09:40:30 51°16.45 2°50.986 18.2153 0.068861 0.35974 -1.766697
2008-04-25 09:41:30 51°16.275 2°50.769 18.2041 0.068861 0.359758 -1.801521
2008-04-25 09:42:30 51°16.157 2°50.479 18.2511 0.068861 0.359788 -1.801521
2008-04-25 09:43:30 51°16.05 2°50.173 18.216 0.068861 0.359806 -1.801521
2008-04-25 09:44:30 51°15.929 2°49.878 18.235 0.068861 0.359812 -1.801521
2008-04-25 09:45:30 51°15.801 2°49.59 18.2642 0.068861 0.359824 -1.801521
2008-04-25 09:46:30 51°15.661 2°49.313 18.2552 0.068861 0.359842 -1.801521
2008-04-25 09:47:30 51°15.525 2°49.032 18.2834 0.068861 0.359848 -1.801521
2008-04-25 09:48:30 51°15.387 2°48.747 18.2532 0.068861 0.35986 -1.801521
2008-04-25 09:49:30 51°15.266 2°48.444 18.2933 0.068861 0.359884 -1.801521
2008-04-25 09:50:30 51°15.155 2°48.129 18.2949 0.068861 0.359896 -1.801521
2008-04-25 09:51:30 51°15.038 2°47.817 18.313 0.068861 0.359902 -1.766697
2008-04-25 09:52:30 51°14.921 2°47.506 18.3112 0.068861 0.35992 -1.801521
2008-04-25 09:53:30 51°14.803 2°47.196 18.2877 0.068758 0.359377 -1.801521
2008-04-25 09:54:30 51°14.684 2°46.887 18.3242 0.068758 0.359395 -1.801521
2008-04-25 09:55:30 51°14.562 2°46.578 18.3576 0.068758 0.359407 -1.801521
2008-04-25 09:56:30 51°14.44 2°46.268 18.3395 0.068758 0.359425 -1.801521
2008-04-25 09:57:30 51°14.318 2°45.958 18.3156 0.068758 0.359437 -1.801521
2008-04-25 09:58:30 51°14.204 2°45.639 18.3712 0.068758 0.359449 -1.801521
2008-04-25 09:59:30 51°14.08 2°45.332 18.3675 0.068758 0.359461 -1.801521
2008-04-25 10:00:30 51°13.966 2°45.018 18.3766 0.068758 0.359479 -1.801521
2008-04-25 10:01:30 51°13.854 2°44.701 18.3515 0.068758 0.359491 -1.766697
2008-04-25 10:02:30 51°13.754 2°44.378 18.3869 0.068758 0.359491 -1.801521
2008-04-25 10:03:30 51°13.655 2°44.057 18.393 0.068758 0.359509 -1.766697
2008-04-25 10:04:30 51°13.538 2°43.759 18.3871 0.068758 0.359527 -1.801521
2008-04-25 10:05:30 51°13.422 2°43.459 18.3995 0.068758 0.359533 -1.801521
2008-04-25 10:06:30 51°13.307 2°43.157 18.4012 0.068758 0.359544 -1.801521
2008-04-25 10:07:30 51°13.195 2°42.854 18.417 0.068758 0.359556 -1.801521
2008-04-25 10:08:30 51°13.081 2°42.55 18.4195 0.068758 0.359568 -1.801521
2008-04-25 10:09:30 51°12.975 2°42.239 18.4288 0.068758 0.35958 -1.766697
2008-04-25 10:10:30 51°12.868 2°41.927 18.4364 0.068758 0.359598 -1.766697
2008-04-25 10:11:30 51°12.76 2°41.617 18.4425 0.068758 0.35961 -1.766697
2008-04-25 10:12:30 51°12.65 2°41.308 18.4547 0.068758 0.359622 -1.766697
2008-04-25 10:13:30 51°12.537 2°41 18.4464 0.068758 0.35964 -1.801521
2008-04-25 10:14:30 51°12.418 2°40.699 18.4419 0.068758 0.359646 -1.801521
2008-04-25 10:15:30 51°12.296 2°40.403 18.4638 0.068758 0.359664 -1.801521
2008-04-25 10:16:30 51°12.176 2°40.106 18.4797 0.068758 0.359676 -1.801521
2008-04-25 10:17:30 51°12.058 2°39.807 18.4973 0.068758 0.359688 -1.801521
2008-04-25 10:18:30 51°11.941 2°39.508 18.4774 0.068758 0.359694 -1.801521
2008-04-25 10:19:30 51°11.835 2°39.199 18.4955 0.068758 0.359706 -1.801521
2008-04-25 10:20:30 51°11.728 2°38.891 18.5192 0.068758 0.359712 -1.766697
2008-04-25 10:21:30 51°11.619 2°38.584 18.5325 0.068758 0.35973 -1.801521
2008-04-25 10:22:30 51°11.508 2°38.278 18.5356 0.068758 0.359736 -1.801521
2008-04-25 10:23:30 51°11.388 2°37.983 18.5249 0.068758 0.359748 -1.801521
2008-04-25 10:24:30 51°11.276 2°37.678 18.5438 0.068758 0.35976 -1.801521
2008-04-25 10:25:30 51°11.165 2°37.372 18.5678 0.068758 0.359778 -1.801521
2008-04-25 10:26:30 51°11.048 2°37.069 18.5652 0.068758 0.359796 -1.801521
2008-04-25 10:27:30 51°10.924 2°36.774 18.5872 0.068758 0.359808 -1.801521
2008-04-25 10:28:30 51°10.804 2°36.474 18.5855 0.068758 0.35982 -1.801521
2008-04-25 10:29:30 51°10.671 2°36.193 18.6134 0.068758 0.359838 -1.801521
2008-04-25 10:30:30 51°10.487 2°35.992 18.6101 0.068758 0.359844 -1.801521
2008-04-25 10:31:30 51°10.299 2°35.802 18.6138 0.068758 0.359856 -1.801521
2008-04-25 10:32:30 51°10.107 2°35.625 18.6328 0.068758 0.359862 -1.801521
2008-04-25 10:33:30 51°9.915 2°35.447 18.6291 0.068758 0.35988 -1.801521
2008-04-25 10:34:30 51°9.711 2°35.342 18.6275 0.068758 0.359898 -1.766697
2008-04-25 10:35:30 51°9.497 2°35.379 18.6549 0.068758 0.359904 -1.801521
2008-04-25 10:36:30 51°9.282 2°35.413 18.6988 0.068758 0.359934 -1.801521
2008-04-25 10:37:30 51°9.092 2°35.44 18.6874 0.068758 0.359958 -1.801521
2008-04-25 10:38:30 51°9.003 2°35.403 18.6848 0.068758 0.359976 -1.801521
2008-04-25 10:39:30 51°8.966 2°35.352 18.7159 0.068758 0.36 -1.801521
2008-04-25 10:40:30 51°8.938 2°35.31 18.7481 0.068758 0.360036 -1.801521
2008-04-25 10:41:30 51°8.914 2°35.274 12.6738 0.068758 0.359946 -1.592577
2008-04-25 10:42:30 51°8.889 2°35.242 10.8605 3.845196 33.542467 58.618212
2008-04-25 10:43:30 51°8.864 2°35.206 10.8518 3.806016 33.795452 50.713152
2008-04-25 10:44:30 51°8.823 2°35.113 10.885 3.79368 33.732183 48.693356
2008-04-25 10:45:30 51°8.8 2°34.972 10.9026 3.799071 33.776708 41.693722
2008-04-25 10:46:30 51°8.801 2°34.847 10.8916 3.800211 33.794465 39.081918
2008-04-25 10:47:30 51°8.802 2°34.741 10.9037 3.787253 33.694298 40.857944
2008-04-25 10:48:30 51°8.799 2°34.642 10.9334 3.793992 33.744137 35.007503
2008-04-25 10:49:30 51°8.79 2°34.546 10.9435 3.799382 33.779789 32.256403
2008-04-25 10:50:30 51°8.776 2°34.452 10.9396 3.795443 33.737545 31.699218
2008-04-25 10:51:30 51°8.76 2°34.358 10.9123 3.800212 33.797696 33.614541
2008-04-25 10:52:30 51°8.747 2°34.262 10.8815 3.794821 33.772544 38.24614
2008-04-25 10:53:30 51°8.735 2°34.167 10.8615 3.796066 33.810768 40.30076
2008-04-25 10:54:31 51°8.724 2°34.072 10.8367 3.800835 33.881627 43.330452
2008-04-25 10:55:30 51°8.716 2°33.982 10.8148 3.80042 33.904326 44.932359
2008-04-25 10:56:30 51°8.711 2°33.893 10.782 3.801043 33.927601 45.698488
2008-04-25 10:57:30 51°8.709 2°33.804 10.7533 3.793268 33.886892 48.414764
2008-04-25 10:58:30 51°8.709 2°33.716 10.7123 3.796793 33.956253 49.146069
2008-04-25 10:59:30 51°8.711 2°33.628 10.6783 3.791195 33.936404 49.912198
2008-04-25 11:00:30 51°8.713 2°33.542 10.619 3.786635 33.931789 49.66843
2008-04-25 11:01:30 51°8.713 2°33.455 10.6098 3.78902 33.999885 49.598782
2008-04-25 11:02:30 51°8.706 2°33.367 10.5894 3.789745 34.021112 47.787931
2008-04-25 11:03:30 51°8.694 2°33.277 10.5784 3.789435 34.029516 44.827887
2008-04-25 11:04:30 51°8.675 2°33.188 10.5641 3.795033 34.093777 43.22598
2008-04-25 11:05:30 51°8.648 2°33.104 10.5506 3.792649 34.092173 43.783165
2008-04-25 11:06:30 51°8.612 2°33.026 10.5294 3.792338 34.098136 45.210951
2008-04-25 11:07:30 51°8.575 2°32.95 10.5243 3.791301 34.105091 46.186025
2008-04-25 11:08:30 51°8.535 2°32.877 10.5141 3.791301 34.106743 43.713517
2008-04-25 11:09:30 51°8.495 2°32.808 10.5125 3.786326 34.067599 43.05186
2008-04-25 11:10:30 51°8.453 2°32.739 10.5128 3.789125 34.101446 41.902666
2008-04-25 11:11:30 51°8.414 2°32.668 10.5036 3.790161 34.111841 39.639103
2008-04-25 11:12:31 51°8.38 2°32.591 10.502 3.790472 34.122404 39.673927
2008-04-25 11:13:30 51°8.353 2°32.512 10.5034 3.789954 34.118032 38.803325
2008-04-25 11:14:30 51°8.336 2°32.429 10.5022 3.789228 34.114062 39.36051
2008-04-25 11:15:30 51°8.343 2°32.359 10.48 3.789332 34.116756 39.952519
2008-04-25 11:16:30 51°8.361 2°32.322 10.4858 3.78757 34.113141 43.817989
2008-04-25 11:17:31 51°8.37 2°32.296 10.5016 3.788399 34.11236 42.285731
2008-04-25 11:18:30 51°8.372 2°32.273 10.4934 3.792338 34.148573 42.285731
2008-04-25 11:19:30 51°8.369 2°32.252 10.4969 3.792235 34.150018 42.181258
2008-04-25 11:20:30 51°8.364 2°32.235 10.4993 3.792028 34.149594 41.658898
2008-04-25 11:21:30 51°8.357 2°32.222 10.5062 3.793064 34.150886 40.892768
2008-04-25 11:22:29 51°8.374 2°32.208 10.5064 3.793582 34.153601 39.464982
2008-04-25 11:23:30 51°8.402 2°32.276 10.487 3.793064 34.156683 41.93749
2008-04-25 11:24:29 51°8.458 2°32.444 10.4761 3.791717 34.158901 42.564323
2008-04-25 11:25:30 51°8.537 2°32.697 10.4623 3.789747 34.149073 41.310657
2008-04-25 11:26:30 51°8.615 2°32.972 10.4858 3.788089 34.13822 46.534265
2008-04-25 11:27:30 51°8.693 2°33.248 10.4944 3.788607 34.121061 50.608679
2008-04-25 11:28:30 51°8.768 2°33.528 10.5097 3.787673 34.09929 54.578622
2008-04-25 11:29:30 51°8.85 2°33.802 10.5231 3.78674 34.080015 57.608314
2008-04-25 11:30:30 51°8.928 2°34.079 10.5307 3.787569 34.075116 58.618212
2008-04-25 11:31:30 51°9.004 2°34.358 10.5659 3.786222 34.055007 59.419165
2008-04-25 11:32:30 51°9.079 2°34.638 10.578 3.788502 34.040758 57.817259
2008-04-25 11:33:29 51°9.159 2°34.91 10.5755 3.786532 34.018571 60.951423
2008-04-25 11:34:30 51°9.239 2°35.191 10.556 3.786325 34.02555 65.757143
2008-04-25 11:35:30 51°9.316 2°35.471 10.5487 3.783215 34.010052 69.692261
2008-04-25 11:36:30 51°9.397 2°35.743 10.5476 3.782282 34.004001 69.692261
2008-04-25 11:37:30 51°9.479 2°36.015 10.5477 3.779898 33.979298 69.692261
2008-04-25 11:38:30 51°9.557 2°36.292 10.5524 3.778447 33.969699 69.692261
2008-04-25 11:39:30 51°9.635 2°36.568 10.5683 3.776892 33.945083 69.692261
2008-04-25 11:40:30 51°9.714 2°36.843 10.594 3.776684 33.915913 69.692261
2008-04-25 11:41:30 51°9.789 2°37.122 10.626 3.776476 33.894164 69.692261
2008-04-25 11:42:30 51°9.87 2°37.397 10.6511 3.777202 33.871946 68.368947
2008-04-25 11:43:30 51°9.946 2°37.676 10.67 3.780311 33.886649 66.697392
2008-04-25 11:44:30 51°10.024 2°37.955 10.6754 3.783939 33.906518 66.906337
2008-04-25 11:45:30 51°10.105 2°38.233 10.6556 3.785183 33.911574 66.871513
2008-04-25 11:46:30 51°10.179 2°38.517 10.6094 3.780934 33.909229 69.692261
2008-04-25 11:47:30 51°10.262 2°38.793 10.5856 3.777617 33.902287 69.692261
2008-04-25 11:48:30 51°10.357 2°39.01 10.5593 3.774611 33.897632 69.657437
2008-04-25 11:49:29 51°10.439 2°38.883 10.5362 3.772745 33.901108 69.692261
2008-04-25 11:50:30 51°10.474 2°38.643 10.5011 3.769636 33.900346 65.722319
2008-04-25 11:51:30 51°10.488 2°38.387 10.4872 3.767252 33.908509 64.712421
2008-04-25 11:52:30 51°10.505 2°38.129 10.5287 3.770051 33.922584 66.140207
2008-04-25 11:53:30 51°10.523 2°37.877 10.5468 3.779587 33.974538 60.916599
2008-04-25 11:54:30 51°10.535 2°37.626 10.5095 3.784978 34.043365 59.697757
2008-04-25 11:55:30 51°10.548 2°37.379 10.4816 3.786326 34.08412 58.792332
2008-04-25 11:56:30 51°10.559 2°37.133 10.4448 3.786326 34.114727 56.668065
2008-04-25 11:57:30 51°10.563 2°36.944 10.4294 3.785912 34.136251 55.100982
2008-04-25 11:58:30 51°10.565 2°36.788 10.423 3.785186 34.140572 51.688225
2008-04-25 11:59:30 51°10.566 2°36.639 10.4286 3.784357 34.132238 48.55406
2008-04-25 12:00:30 51°10.567 2°36.492 10.4296 3.783113 34.118908 46.499441
2008-04-25 12:01:29 51°10.567 2°36.348 10.429 3.781662 34.103496 45.002007
2008-04-25 12:02:30 51°10.567 2°36.197 10.4269 3.78021 34.088915 44.584118
2008-04-25 12:03:30 51°10.568 2°36.05 10.4197 3.779277 34.079541 43.365276
2008-04-25 12:04:30 51°10.57 2°35.902 10.4111 3.778448 34.079491 45.002007
2008-04-25 12:05:30 51°10.572 2°35.756 10.4137 3.77793 34.077596 44.584118
2008-04-25 12:06:30 51°10.575 2°35.611 10.416 3.777619 34.077784 46.91733
2008-04-25 12:07:30 51°10.53 2°35.491 10.4287 3.778448 34.078663 46.255673
2008-04-25 12:08:30 51°10.385 2°35.529 10.4448 3.780418 34.084372 46.429793
2008-04-25 12:09:30 51°10.212 2°35.711 10.4172 3.782284 34.100631 47.474515
2008-04-25 12:10:30 51°10.062 2°35.952 10.4062 3.783528 34.12971 44.862711
2008-04-25 12:11:30 51°9.983 2°36.258 10.4329 3.786223 34.161783 42.355379
2008-04-25 12:12:30 51°10.019 2°36.575 10.5093 3.788918 34.159817 37.166595
2008-04-25 12:13:30 51°10.071 2°36.892 10.5559 3.792856 34.123158 39.813223
2008-04-25 12:14:30 51°10.119 2°37.209 10.5872 3.79296 34.084564 43.191156
2008-04-25 12:15:30 51°10.162 2°37.528 10.5969 3.792752 34.061063 46.011904
2008-04-25 12:16:30 51°10.211 2°37.844 10.601 3.790056 34.02669 48.55406
2008-04-25 12:17:30 51°10.256 2°38.162 10.5807 3.787568 34.001804 52.07129
2008-04-25 12:18:30 51°10.301 2°38.483 10.5383 3.781038 33.965225 57.190426
2008-04-25 12:19:30 51°10.352 2°38.799 10.4878 3.775026 33.952706 63.006043
2008-04-25 12:20:30 51°10.408 2°39.111 10.4836 3.769325 33.922714 61.578256
2008-04-25 12:21:30 51°10.461 2°39.426 10.5017 3.768185 33.906349 58.409267
2008-04-25 12:22:30 51°10.524 2°39.736 10.5336 3.766215 33.873467 55.484047
2008-04-25 12:23:30 51°10.583 2°40.049 10.557 3.764245 33.825863 56.563593
2008-04-25 12:24:30 51°10.643 2°40.361 10.5969 3.764659 33.806275 58.548564
2008-04-25 12:25:30 51°10.703 2°40.674 10.6992 3.762378 33.730425 57.469018
2008-04-25 12:26:30 51°10.76 2°40.99 10.8062 3.762791 33.626576 56.180528
2008-04-25 12:27:30 51°10.82 2°41.3 10.857 3.769114 33.615918 51.583753
2008-04-25 12:28:30 51°10.862 2°41.617 10.8693 3.77243 33.620627 53.986613
2008-04-25 12:29:30 51°10.933 2°41.92 10.8602 3.761649 33.485534 55.240279
2008-04-25 12:30:30 51°11.002 2°42.227 10.83 3.74693 33.372439 55.553695
2008-04-25 12:31:30 51°11.064 2°42.54 10.8182 3.737809 33.301164 56.180528
2008-04-25 12:32:30 51°11.13 2°42.85 10.8391 3.729309 33.219264 57.677962
2008-04-25 12:33:30 51°11.192 2°43.163 10.8318 3.721328 33.128211 61.508608
2008-04-25 12:34:30 51°11.257 2°43.477 10.8058 3.710237 33.028641 65.687495
2008-04-25 12:35:30 51°11.321 2°43.791 10.7668 3.697593 32.932634 69.727085
2008-04-25 12:36:30 51°11.377 2°44.11 10.7522 3.682254 32.805082 69.692261
2008-04-25 12:37:30 51°11.442 2°44.427 10.7602 3.67334 32.722259 69.692261
2008-04-25 12:38:30 51°11.503 2°44.747 10.7657 3.665878 32.642047 69.657437
2008-04-25 12:39:30 51°11.568 2°45.066 10.7685 3.657069 32.550119 69.622613
2008-04-25 12:40:30 51°11.629 2°45.385 10.7422 3.647535 32.464334 69.587789
2008-04-25 12:41:30 51°11.69 2°45.703 10.6988 3.634891 32.355558 69.587789
2008-04-25 12:42:30 51°11.757 2°46.013 10.6564 3.614166 32.200848 69.587789
2008-04-25 12:43:30 51°11.834 2°46.318 10.6248 3.596343 32.074608 69.587789
2008-04-25 12:44:30 51°11.918 2°46.619 10.5594 3.574479 31.863369 69.587789
2008-04-25 12:45:30 51°12.012 2°46.914 10.5128 3.560699 31.789825 69.552965
2008-04-25 12:46:30 51°12.104 2°47.209 10.486 3.552825 31.74859 69.552965
2008-04-25 12:47:30 51°12.195 2°47.506 10.4675 3.54609 31.700168 69.552965
2008-04-25 12:48:30 51°12.299 2°47.793 10.4666 3.531792 31.574301 69.552965
2008-04-25 12:49:30 51°12.395 2°48.08 10.5129 3.530548 31.551248 69.552965
2008-04-25 12:50:30 51°12.489 2°48.37 10.5667 3.528061 31.478516 69.622613
2008-04-25 12:51:30 51°12.59 2°48.656 10.5834 3.527335 31.431793 69.622613
2008-04-25 12:52:30 51°12.688 2°48.944 10.5506 3.525056 31.422144 69.587789
2008-04-25 12:53:30 51°12.787 2°49.232 10.5451 3.520394 31.388895 69.587789
2008-04-25 12:54:30 51°12.891 2°49.519 10.5716 3.515628 31.33111 69.587789
2008-04-25 12:55:30 51°12.994 2°49.808 10.6062 3.512001 31.275579 69.622613
2008-04-25 12:56:30 51°13.101 2°50.094 10.6557 3.509411 31.22358 69.622613
2008-04-25 12:57:30 51°13.204 2°50.385 10.6163 3.505991 31.142479 69.622613
2008-04-25 12:58:30 51°13.302 2°50.682 10.5112 3.492628 31.090867 69.552965
2008-04-25 12:59:30 51°13.402 2°50.978 10.4715 3.479782 31.023926 69.552965
2008-04-25 13:00:30 51°13.506 2°51.27 10.4939 3.470666 30.969726 69.518141
2008-04-25 13:01:30 51°13.612 2°51.561 10.6666 3.465899 30.812038 69.552965
2008-04-25 13:02:30 51°13.722 2°51.846 10.7449 3.463101 30.709589 69.622613
2008-04-25 13:03:30 51°13.828 2°52.134 10.7048 3.458128 30.617926 69.622613
2008-04-25 13:04:30 51°13.936 2°52.421 10.701 3.448184 30.5511 69.622613
2008-04-25 13:05:30 51°14.045 2°52.708 10.722 3.439585 30.458548 69.622613
2008-04-25 13:06:30 51°14.179 2°52.966 10.7863 3.42964 30.322243 69.622613
2008-04-25 13:07:30 51°14.329 2°53.203 10.8259 3.430987 30.301974 69.622613
2008-04-25 13:08:30 51°14.457 2°53.469 14.4921 3.535917 30.247783 59.97635
2008-04-25 13:09:30 51°14.53 2°53.78 14.2595 0.152845 0.981993 -1.348809
2008-04-25 13:10:30 51°14.508 2°54.112 14.4068 0.114866 0.728791 -1.383633
2008-04-25 13:11:30 51°14.483 2°54.442 14.3521 0.110235 0.698413 -1.383633
2008-04-25 13:12:30 51°14.439 2°54.768 14.3867 0.086461 0.542253 -1.348809
2008-04-25 13:13:30 51°14.37 2°55.018 14.5778 0.075655 0.472218 -1.348809
2008-04-25 13:14:33 51°14.274 2°55.227 14.4498 0.081727 0.511689 -1.348809
2008-04-25 13:15:34 51°14.161 2°55.374 14.5116 0.078948 0.493676 -1.348809
2008-04-25 13:16:34 51°14.06 2°55.456 14.6158 0.083373 0.522603 -1.383633
2008-04-25 13:17:34 51°13.971 2°55.523 14.6922 0.08574 0.538118 -1.348809
2008-04-25 13:18:34 51°13.899 2°55.578 14.8338 0.092121 0.579843 -1.383633
2008-04-25 13:19:34 51°13.799 2°55.658 14.8066 0.09665 0.609386 -1.313985
2008-04-25 13:20:34 51°13.733 2°55.752 14.918 0.107971 0.6838 -1.348809
2008-04-25 13:21:34 51°13.683 2°55.868 14.9571 0.115587 0.733988 -1.348809
2008-04-25 13:22:34 51°13.667 2°55.944 15.013 0.105706 0.668213 -1.383633